DW9498 Weather Reports


Display with metric or nautical units.
time (UTC)temp
F
wind
direction
speed
MPH
gust
MPH
rain 1hr
in
rain 24hr
in
rain mn
in
humidity
%
barometer
mb
20260906161404 81 184 0.0 0.0 0.01 0.01 0.01 82 1015.9
20260906160329 81 184 0.0 0.0 0.01 0.01 0.01 82 1016.0
20260906155341 81 184 0.0 0.0 0.01 0.01 0.01 82 1015.9
20260906154344 80 153 0.0 0.0 0.01 0.01 0.01 82 1016.0
20260906153332 81 157 0.0 0.0 0.01 0.01 0.01 80 1016.0
20260906152329 81 157 0.0 1.0 0.00 0.00 0.00 79 1016.2
20260906151329 81 141 0.0 1.0 0.00 0.00 0.00 78 1016.2
20260906150335 81 144 0.0 3.0 0.00 0.00 0.00 78 1015.6
20260906145326 82 164 0.0 2.0 0.00 0.00 0.00 78 1015.4
20260906144349 81 234 0.0 1.0 0.00 0.00 0.00 78 1015.3
20260906143354 81 240 0.0 1.0 0.00 0.00 0.00 79 1015.3
20260906142333 81 213 0.0 2.0 0.00 0.00 0.00 79 1015.3
20260906141339 81 251 0.0 1.0 0.00 0.00 0.00 79 1015.4
20260906140329 80 295 0.0 1.0 0.00 0.00 0.00 79 1015.4
20260906135358 80 234 0.0 1.0 0.00 0.00 0.00 79 1015.4
20260906134340 80 254 0.0 3.0 0.00 0.00 0.00 80 1015.5
20260906133350 80 221 0.0 2.0 0.00 0.00 0.00 80 1015.5
20260906132331 79 293 0.0 1.0 0.00 0.00 0.00 80 1015.4
20260906131333 79 254 0.0 1.0 0.00 0.00 0.00 82 1015.4
20260906130326 78 271 0.0 0.0 0.00 0.00 0.00 82 1015.4
20260906125338 78 332 0.0 0.0 0.00 0.00 0.00 83 1015.5
20260906124338 77 284 0.0 1.0 0.00 0.00 0.00 83 1015.3
20260906123347 77 286 0.0 0.0 0.00 0.00 0.00 83 1015.1
20260906122334 77 328 0.0 0.0 0.00 0.00 0.00 83 1014.9
20260906121344 77 324 0.0 0.0 0.00 0.00 0.00 83 1014.8
20260906120324 77 299 0.0 1.0 0.00 0.00 0.00 83 1014.8
20260906115335 77 240 0.0 0.0 0.00 0.00 0.00 83 1014.7
20260906114336 77 298 0.0 0.0 0.00 0.00 0.00 83 1014.5
20260906113347 77 325 0.0 0.0 0.00 0.00 0.00 83 1014.4
20260906112333 77 303 0.0 0.0 0.00 0.00 0.00 83 1014.4
20260906111337 77 271 0.0 0.0 0.00 0.00 0.00 83 1014.4
20260906110327 77 268 0.0 0.0 0.00 0.00 0.00 83 1014.6
20260906105341 77 269 0.0 0.0 0.00 0.00 0.00 83 1014.5
20260906104327 77 270 0.0 0.0 0.00 0.00 0.00 82 1014.5
20260906103357 77 336 0.0 0.0 0.00 0.00 0.00 82 1014.3
20260906102341 77 336 0.0 0.0 0.00 0.00 0.00 82 1014.1
20260906101346 77 336 0.0 0.0 0.00 0.00 0.00 82 1014.1
20260906100331 77 296 0.0 0.0 0.00 0.00 0.00 82 1014.2
20260906095344 77 296 0.0 0.0 0.00 0.00 0.00 82 1014.1
20260906094331 77 296 0.0 0.0 0.00 0.00 0.00 82 1014.0
20260906093334 77 296 0.0 0.0 0.00 0.00 0.00 82 1014.0
20260906092334 77 296 0.0 0.0 0.00 0.00 0.00 82 1014.1
20260906091339 77 296 0.0 0.0 0.00 0.00 0.00 82 1014.1
20260906090328 77 296 0.0 0.0 0.00 0.00 0.00 81 1014.2
20260906085341 78 296 0.0 0.0 0.00 0.00 0.00 81 1014.2
20260906084342 78 296 0.0 0.0 0.00 0.00 0.00 80 1014.2
20260906083331 78 296 0.0 0.0 0.00 0.00 0.00 79 1014.1
20260906082326 79 296 0.0 0.0 0.00 0.00 0.00 78 1014.0
20260906081401 79 296 0.0 0.0 0.00 0.00 0.00 78 1013.9
20260906080352 79 303 0.0 0.0 0.00 0.00 0.00 78 1014.0
20260906075324 80 225 0.0 0.0 0.00 0.00 0.00 77 1013.9
20260906074327 80 230 0.0 3.0 0.00 0.00 0.00 77 1013.8
20260906073335 80 353 0.0 0.0 0.00 0.00 0.00 77 1013.8
20260906072330 80 230 0.0 1.0 0.00 0.00 0.00 77 1013.8
20260906071358 80 304 0.0 2.0 0.00 0.00 0.00 77 1013.9
20260906070408 80 243 0.0 0.0 0.00 0.00 0.00 76 1014.0
20260906065330 80 316 0.0 0.0 0.00 0.00 0.00 76 1014.1
20260906064331 80 260 0.0 0.0 0.00 0.00 0.00 76 1014.2
20260906063338 80 267 0.0 0.0 0.00 0.00 0.00 76 1014.2
20260906062338 80 271 0.0 0.0 0.00 0.00 0.00 76 1014.3
20260906061343 81 307 0.0 0.0 0.00 0.00 0.00 76 1014.3
20260906060333 81 307 0.0 0.0 0.00 0.00 0.00 76 1014.3
20260906055327 81 325 0.0 0.0 0.00 0.00 0.00 75 1014.2
20260906054326 81 332 0.0 0.0 0.00 0.00 0.00 75 1014.2
20260906053329 81 333 0.0 0.0 0.00 0.00 0.00 75 1014.2
20260906052339 82 332 0.0 0.0 0.00 0.00 0.00 75 1014.2
20260906051325 82 330 0.0 1.0 0.00 0.00 0.00 74 1014.2
20260906050335 82 325 0.0 0.0 0.00 0.00 0.00 74 1014.3
20260906045340 83 330 0.0 0.0 0.00 0.00 0.00 73 1014.2
20260906044329 83 330 0.0 0.0 0.00 0.00 0.00 73 1014.2
20260906043323 83 330 0.0 0.0 0.00 0.00 0.00 73 1014.2
20260906042335 83 325 0.0 0.0 0.00 0.00 0.00 73 1014.3
20260906041325 83 325 0.0 0.0 0.00 0.00 0.00 73 1014.2
20260906040332 84 325 0.0 0.0 0.00 0.00 0.00 73 1014.3
20260906035326 84 325 0.0 0.0 0.00 0.00 0.00 73 1014.3
20260906034330 84 325 0.0 0.0 0.00 0.00 0.00 72 1014.2
20260906033339 84 325 0.0 0.0 0.00 0.00 0.00 72 1014.2
20260906032325 84 325 0.0 0.0 0.00 0.00 0.00 73 1014.1
20260906031349 84 315 0.0 0.0 0.00 0.00 0.00 73 1014.0
20260906030338 85 315 0.0 0.0 0.00 0.00 0.00 73 1013.9
20260906025335 85 345 0.0 0.0 0.00 0.00 0.00 72 1013.5
20260906024337 85 357 0.0 2.0 0.00 0.00 0.00 72 1013.4
20260906023344 86 329 0.0 0.0 0.00 0.00 0.00 71 1013.2
20260906022332 86 329 0.0 0.0 0.00 0.00 0.00 71 1013.3
20260906021335 86 330 0.0 0.0 0.00 0.00 0.00 71 1013.1
20260906020342 86 313 0.0 0.0 0.00 0.00 0.00 71 1012.9
20260906015328 86 312 0.0 0.0 0.00 0.00 0.00 71 1012.6
20260906014350 86 312 0.0 0.0 0.00 0.00 0.00 70 1012.5
20260906013332 87 312 0.0 0.0 0.00 0.00 0.00 70 1012.4
20260906012327 87 336 0.0 0.0 0.00 0.00 0.00 69 1012.4
20260906011337 88 336 0.0 0.0 0.00 0.00 0.00 68 1012.3
20260906010349 88 341 0.0 0.0 0.00 0.00 0.00 67 1012.2
20260906005325 89 277 0.0 0.0 0.00 0.00 0.00 67 1012.1
20260906004333 90 275 0.0 0.0 0.00 0.00 0.00 66 1012.2
20260906003407 90 304 0.0 0.0 0.00 0.00 0.00 65 1012.1
20260906002333 91 273 0.0 1.0 0.00 0.00 0.00 63 1011.9
20260906001339 92 347 0.0 2.0 0.00 0.00 0.00 62 1011.9
20260906000334 93 239 0.0 2.0 0.00 0.00 0.00 61 1011.9
20260905235349 94 270 1.0 2.0 0.00 0.00 0.00 59 1012.0
20260905234346 95 235 0.0 1.0 0.00 0.00 0.00 58 1012.0
20260905233330 95 292 0.0 3.0 0.00 0.00 0.00 58 1011.9
20260905232337 95 263 0.0 0.0 0.00 0.00 0.00 57 1011.9
20260905231337 96 262 0.0 2.0 0.00 0.00 0.00 56 1011.9
20260905230347 97 243 0.0 3.0 0.00 0.00 0.00 56 1011.9
20260905225351 97 225 0.0 2.0 0.00 0.00 0.00 56 1011.9
20260905224336 96 152 0.0 3.0 0.00 0.00 0.00 56 1011.8
20260905223347 96 315 1.0 4.0 0.00 0.00 0.00 55 1011.6
20260905222333 96 202 1.0 5.0 0.00 0.00 0.00 55 1011.6
20260905221337 96 350 1.0 4.0 0.00 0.00 0.00 56 1011.5
20260905220348 95 342 1.0 5.0 0.00 0.00 0.00 55 1011.5
20260905215355 96 221 2.0 4.0 0.00 0.00 0.00 54 1011.6
20260905214338 95 249 1.0 5.0 0.00 0.00 0.00 55 1011.8
20260905213329 94 282 0.0 4.0 0.00 0.00 0.00 56 1011.9
20260905212344 95 328 2.0 3.0 0.00 0.00 0.00 53 1012.0
20260905211358 95 221 0.0 3.0 0.00 0.00 0.00 55 1012.2
20260905210410 94 146 1.0 3.0 0.00 0.00 0.00 54 1012.5
20260905205351 94 211 1.0 6.0 0.00 0.00 0.00 56 1012.5
20260905204359 94 356 1.0 4.0 0.00 0.00 0.00 55 1012.8
20260905203348 94 314 1.0 3.0 0.00 0.00 0.00 55 1013.0
20260905202329 93 21 0.0 4.0 0.00 0.00 0.00 56 1013.2
20260905201403 93 12 1.0 3.0 0.00 0.00 0.00 53 1013.5
20260905200333 93 352 1.0 5.0 0.00 0.00 0.00 53 1014.0
20260905195328 93 289 2.0 6.0 0.00 0.00 0.00 53 1014.1
20260905194333 92 210 1.0 3.0 0.00 0.00 0.00 57 1014.1
20260905193324 92 356 2.0 6.0 0.00 0.00 0.00 57 1014.2
20260905192334 92 346 1.0 4.0 0.00 0.00 0.00 58 1014.2
20260905191340 92 355 2.0 5.0 0.00 0.00 0.00 59 1014.4
20260905190329 90 359 1.0 7.0 0.00 0.00 0.00 61 1014.6
20260905185325 90 17 3.0 8.0 0.00 0.00 0.00 60 1014.9
20260905184349 90 16 1.0 5.0 0.00 0.00 0.00 61 1015.2
20260905183338 90 354 2.0 7.0 0.00 0.00 0.00 62 1015.3
20260905182328 90 10 4.0 8.0 0.00 0.00 0.00 62 1015.5
20260905181343 89 16 2.0 7.0 0.00 0.00 0.00 63 1015.4
20260905180332 89 31 4.0 6.0 0.00 0.00 0.00 65 1015.4
20260905175324 88 20 3.0 8.0 0.00 0.00 0.00 64 1015.2
20260905174347 89 17 5.0 12.0 0.00 0.00 0.00 64 1015.3
20260905173325 89 10 1.0 8.0 0.00 0.00 0.00 64 1015.3
20260905172333 88 339 3.0 6.0 0.00 0.00 0.00 64 1015.4
20260905171338 89 27 4.0 8.0 0.00 0.00 0.00 63 1015.4
20260905170408 89 330 3.0 10.0 0.00 0.00 0.00 63 1015.3
20260905165332 89 356 3.0 9.0 0.00 0.00 0.00 62 1015.3
20260905164340 90 25 4.0 9.0 0.00 0.00 0.00 62 1015.5
20260905163349 89 340 3.0 8.0 0.00 0.00 0.00 61 1015.5
20260905162324 90 344 1.0 6.0 0.00 0.00 0.00 61 1015.3